• In Hungary
  • List of Countries
  • For 7 days
  • Water Temperature
  • Satellite Maps
  • Weather Map
  • News
  • Weather Widgets
  • user-avatar
    Login

    Hourly Weather Shazagay

    Today, 22 February, Thursday

    Time Temperature Precipitation Wind Pressure Humidity
    00:00 -17°C° 0.1 mm 1 mps 679 mmHg 93%
    01:00 -17°C° 0 mm 1 mps 679 mmHg 94%
    02:00 -17°C° 0 mm 1 mps 678 mmHg 94%
    03:00 -18°C° 0 mm 1 mps 678 mmHg 94%
    04:00 -18°C° 0 mm 1 mps 678 mmHg 94%
    05:00 -19°C° 0 mm 1 mps 678 mmHg 95%
    06:00 -19°C° 0 mm 1 mps 678 mmHg 95%
    07:00 -19°C° 0 mm 1 mps 678 mmHg 95%
    08:00 -17°C° 0 mm 1 mps 678 mmHg 92%
    09:00 -16°C° 0 mm 1 mps 678 mmHg 88%
    10:00 -14°C° 0 mm 1 mps 678 mmHg 85%
    11:00 -13°C° 0 mm 1 mps 678 mmHg 83%
    12:00 -14°C° 0 mm 2 mps 678 mmHg 81%
    13:00 -13°C° 0 mm 2 mps 678 mmHg 79%
    14:00 -13°C° 0.1 mm 2 mps 678 mmHg 80%
    15:00 -14°C° 0.1 mm 2 mps 678 mmHg 82%
    16:00 -14°C° 0.1 mm 2 mps 678 mmHg 83%
    17:00 -15°C° 0 mm 2 mps 679 mmHg 86%
    18:00 -15°C° 0 mm 1 mps 679 mmHg 88%
    19:00 -16°C° 0 mm 1 mps 679 mmHg 91%
    20:00 -18°C° 0 mm 1 mps 679 mmHg 91%
    21:00 -19°C° 0 mm 1 mps 680 mmHg 91%
    22:00 -20°C° 0 mm 1 mps 680 mmHg 92%
    23:00 -21°C° 0 mm 0 mps 680 mmHg 91%

    Tomorrow, 23 February, Friday

    Time Temperature Precipitation Wind Pressure Humidity
    00:00 -22°C° 0 mm 0 mps 680 mmHg 90%
    01:00 -23°C° 0 mm 0 mps 681 mmHg 89%
    02:00 -23°C° 0 mm 0 mps 681 mmHg 88%
    03:00 -23°C° 0 mm 1 mps 681 mmHg 87%
    04:00 -23°C° 0 mm 1 mps 682 mmHg 86%
    05:00 -24°C° 0 mm 1 mps 682 mmHg 85%
    06:00 -24°C° 0 mm 1 mps 682 mmHg 85%
    07:00 -24°C° 0 mm 1 mps 683 mmHg 85%
    08:00 -21°C° 0 mm 1 mps 683 mmHg 82%
    09:00 -20°C° 0 mm 2 mps 684 mmHg 79%
    10:00 -18°C° 0 mm 2 mps 684 mmHg 76%
    11:00 -16°C° 0 mm 2 mps 684 mmHg 74%
    12:00 -15°C° 0 mm 2 mps 684 mmHg 72%
    13:00 -14°C° 0 mm 3 mps 683 mmHg 70%
    14:00 -13°C° 0 mm 2 mps 683 mmHg 72%
    15:00 -13°C° 0 mm 2 mps 683 mmHg 74%
    16:00 -13°C° 0 mm 2 mps 683 mmHg 76%
    17:00 -15°C° 0 mm 2 mps 683 mmHg 78%
    18:00 -15°C° 0 mm 1 mps 683 mmHg 81%
    19:00 -17°C° 0 mm 1 mps 683 mmHg 83%
    20:00 -17°C° 0 mm 1 mps 683 mmHg 84%
    21:00 -18°C° 0 mm 1 mps 683 mmHg 84%
    22:00 -18°C° 0 mm 1 mps 683 mmHg 84%
    23:00 -18°C° 0 mm 1 mps 683 mmHg 84%

    Day after tomorrow, 24 February, Saturday

    Time Temperature Precipitation Wind Pressure Humidity
    00:00 -18°C° 0 mm 1 mps 683 mmHg 84%
    01:00 -18°C° 0 mm 1 mps 683 mmHg 84%
    02:00 -18°C° 0 mm 1 mps 683 mmHg 85%
    03:00 -18°C° 0 mm 1 mps 683 mmHg 85%
    04:00 -18°C° 0 mm 1 mps 683 mmHg 85%
    05:00 -18°C° 0 mm 1 mps 682 mmHg 86%
    06:00 -18°C° 0 mm 1 mps 682 mmHg 86%
    07:00 -18°C° 0 mm 1 mps 682 mmHg 86%
    08:00 -16°C° 0 mm 1 mps 682 mmHg 82%
    09:00 -14°C° 0 mm 1 mps 682 mmHg 79%
    10:00 -12°C° 0 mm 1 mps 682 mmHg 76%
    11:00 -11°C° 0 mm 1 mps 682 mmHg 76%
    12:00 -9°C° 0 mm 1 mps 682 mmHg 75%
    13:00 -8°C° 0 mm 1 mps 682 mmHg 75%
    14:00 -8°C° 0 mm 1 mps 681 mmHg 77%
    15:00 -8°C° 0 mm 1 mps 681 mmHg 79%
    16:00 -8°C° 0 mm 1 mps 681 mmHg 81%
    17:00 -10°C° 0 mm 1 mps 681 mmHg 83%
    18:00 -12°C° 0 mm 1 mps 681 mmHg 85%
    19:00 -14°C° 0 mm 1 mps 681 mmHg 87%
    20:00 -14°C° 0 mm 1 mps 681 mmHg 86%
    21:00 -15°C° 0 mm 1 mps 681 mmHg 86%
    22:00 -15°C° 0 mm 1 mps 681 mmHg 86%
    23:00 -15°C° 0 mm 1 mps 681 mmHg 86%

    25 February, Sunday

    Time Temperature Precipitation Wind Pressure Humidity
    00:00 -15°C° 0 mm 1 mps 681 mmHg 86%
    01:00 -15°C° 0 mm 1 mps 680 mmHg 86%
    02:00 -16°C° 0 mm 1 mps 680 mmHg 86%
    03:00 -16°C° 0 mm 1 mps 680 mmHg 86%
    04:00 -16°C° 0 mm 1 mps 680 mmHg 86%
    05:00 -17°C° 0 mm 1 mps 680 mmHg 86%
    06:00 -17°C° 0 mm 1 mps 680 mmHg 86%
    07:00 -17°C° 0 mm 1 mps 680 mmHg 86%
    08:00 -14°C° 0 mm 0 mps 680 mmHg 83%
    09:00 -12°C° 0 mm 0 mps 680 mmHg 79%
    10:00 -9°C° 0 mm 0 mps 680 mmHg 75%
    11:00 -8°C° 0 mm 0 mps 680 mmHg 74%
    12:00 -7°C° 0 mm 0 mps 680 mmHg 73%
    13:00 -6°C° 0 mm 0 mps 679 mmHg 72%
    14:00 -6°C° 0 mm 1 mps 679 mmHg 76%
    15:00 -6°C° 0 mm 1 mps 679 mmHg 79%
    16:00 -7°C° 0 mm 1 mps 679 mmHg 82%
    17:00 -8°C° 0 mm 1 mps 679 mmHg 86%
    18:00 -9°C° 0 mm 1 mps 679 mmHg 89%
    19:00 -10°C° 0 mm 1 mps 680 mmHg 92%
    20:00 -10°C° 0.2 mm 1 mps 680 mmHg 93%
    21:00 -11°C° 0.2 mm 1 mps 680 mmHg 94%
    22:00 -11°C° 0.2 mm 1 mps 680 mmHg 95%
    23:00 -11°C° 0.2 mm 1 mps 680 mmHg 95%

    26 February, Monday

    Time Temperature Precipitation Wind Pressure Humidity
    00:00 -12°C° 0.2 mm 1 mps 681 mmHg 96%
    01:00 -12°C° 0.2 mm 1 mps 681 mmHg 96%
    02:00 -12°C° 0.2 mm 1 mps 681 mmHg 96%
    03:00 -12°C° 0.2 mm 1 mps 681 mmHg 96%
    04:00 -12°C° 0.2 mm 1 mps 682 mmHg 96%
    05:00 -12°C° 0.2 mm 1 mps 682 mmHg 96%
    06:00 -14°C° 0.2 mm 2 mps 683 mmHg 95%
    07:00 -14°C° 0.2 mm 2 mps 683 mmHg 95%
    08:00 -14°C° 0.1 mm 2 mps 684 mmHg 92%
    09:00 -14°C° 0.1 mm 3 mps 684 mmHg 89%
    10:00 -13°C° 0.1 mm 3 mps 684 mmHg 85%
    11:00 -13°C° 0.1 mm 3 mps 684 mmHg 83%
    12:00 -13°C° 0.1 mm 3 mps 684 mmHg 81%
    13:00 -12°C° 0.1 mm 3 mps 684 mmHg 79%
    14:00 -13°C° 0 mm 3 mps 684 mmHg 80%
    15:00 -13°C° 0 mm 3 mps 684 mmHg 80%
    16:00 -12°C° 0 mm 2 mps 684 mmHg 81%
    17:00 -14°C° 0 mm 2 mps 685 mmHg 84%
    18:00 -16°C° 0 mm 2 mps 685 mmHg 87%
    19:00 -17°C° 0 mm 2 mps 685 mmHg 90%
    20:00 -18°C° 0 mm 2 mps 685 mmHg 91%
    21:00 -19°C° 0 mm 2 mps 686 mmHg 92%
    22:00 -17°C° 0 mm 1 mps 686 mmHg 92%
    23:00 -18°C° 0 mm 1 mps 686 mmHg 93%

    27 February, Tuesday

    Time Temperature Precipitation Wind Pressure Humidity
    00:00 -19°C° 0 mm 1 mps 686 mmHg 93%
    01:00 -20°C° 0 mm 1 mps 686 mmHg 93%
    02:00 -20°C° 0 mm 1 mps 686 mmHg 93%
    03:00 -21°C° 0 mm 1 mps 687 mmHg 94%
    04:00 -21°C° 0 mm 1 mps 687 mmHg 94%
    05:00 -22°C° 0 mm 1 mps 687 mmHg 94%
    06:00 -22°C° 0 mm 1 mps 688 mmHg 93%
    07:00 -22°C° 0 mm 1 mps 688 mmHg 93%
    08:00 -23°C° 0 mm 2 mps 689 mmHg 88%
    09:00 -20°C° 0 mm 2 mps 689 mmHg 83%
    10:00 -18°C° 0 mm 2 mps 690 mmHg 78%
    11:00 -17°C° 0 mm 2 mps 689 mmHg 76%
    12:00 -17°C° 0 mm 2 mps 689 mmHg 74%
    13:00 -16°C° 0 mm 2 mps 689 mmHg 72%
    14:00 -16°C° 0 mm 2 mps 689 mmHg 74%
    15:00 -16°C° 0 mm 2 mps 689 mmHg 75%
    16:00 -17°C° 0 mm 2 mps 689 mmHg 76%
    17:00 -17°C° 0 mm 1 mps 688 mmHg 81%
    18:00 -19°C° 0 mm 1 mps 688 mmHg 85%
    19:00 -21°C° 0 mm 0 mps 688 mmHg 89%
    20:00 -22°C° 0 mm 0 mps 688 mmHg 90%
    21:00 -22°C° 0 mm 0 mps 688 mmHg 91%
    22:00 -23°C° 0 mm 0 mps 688 mmHg 91%
    23:00 -23°C° 0 mm 0 mps 688 mmHg 92%
    Show more